User: anonymous   Login
Location: Biharia
(46.4333°N, 22.8000°E)
Time: 09:05:02
(UTC+00:00)
Language:

Gbstr 26 Del rocket - Orbit

View from above orbital plane
View from above orbital plane
View from above satellite
View from above satellite

Ground track
Ground track

The orbit data is extracted from the following two-line orbital elements,

1 25876U 99041E   22024.83253996  .00000424  00000-0  11108-3 0  9990
2 25876  51.7670 155.0417 0530208 254.5740  99.6043 14.04731020151037
Epoch (UTC): 24 January 2022 19:58:51
Eccentricity: 0.0530208
inclination: 51.7670°
perigee height: 493 km
apogee height: 1262 km
right ascension of ascending node: 155.0417°
argument of perigee: 254.5740°
revolutions per day: 14.04731020
mean anomaly at epoch: 99.6043°
orbit number at epoch: 15103

The dashed part of the orbit path shows where the satellite is in the earth's shadow,  

DLR